Wind_Speed
25 25 25 29 30 35 38 41 42 39 40 39 39 39 39 37 35 32 28 28 28 26 25 23 23 23 23 23 23 23 23 22 22 22 21 19 18 19 20 21 21 23 24
27 26 27 33 34 33 38 37 41 40 38 39 39 40 39 37 36 32 30 30 28 26 24 23 23 23 23 23 23 23 23 23 23 22 20 22 20 21 20 23 22 24 25
24 23 24 35 39 37 36 37 40 41 39 39 40 41 41 40 37 34 34 32 29 27 25 24 23 22 23 23 23 23 24 24 22 20 19 18 13 24 26 22 21 23 24
34 34 31 22 37 39 37 34 41 42 40 40 40 40 39 38 37 35 36 34 31 30 28 27 26 26 25 25 25 23 23 24 23 20 19 19 20 20 26 26 23 25 26
26 28 32 25 29 38 39 37 36 42 44 42 43 43 42 41 40 38 38 37 35 35 33 31 31 29 28 27 26 25 24 23 22 21 20 21 21 23 23 26 25 25 26
26 26 26 34 29 34 37 39 39 38 40 43 45 47 45 44 43 42 41 41 41 39 36 35 34 32 30 27 26 25 23 22 21 21 23 21 25 25 24 25 26 27 28
25 25 29 28 32 34 38 36 36 36 37 42 45 47 45 47 46 44 43 41 42 41 40 37 34 31 28 27 27 26 23 21 21 21 22 23 24 25 25 26 25 24 25
30 28 26 30 35 35 37 36 33 34 34 39 41 45 47 50 48 46 46 46 47 46 48 49 35 30 27 27 27 25 22 20 21 24 23 25 25 25 26 26 23 22 21
26 30 32 29 27 28 30 31 32 35 33 32 37 42 45 47 44 47 48 48 49 50 53 52 47 37 30 29 29 25 22 20 22 23 23 24 25 26 25 24 23 22 19
21 25 28 30 26 25 26 27 29 31 36 38 37 37 38 42 44 46 47 50 48 47 47 43 42 30 30 30 29 27 24 21 22 23 23 24 25 24 23 23 23 21 20
8 8 10 13 15 23 26 28 32 35 31 33 33 33 39 46 47 48 49 48 49 46 43 39 34 37 36 33 31 31 18 22 23 22 22 24 24 23 22 21 20 21 20
9 8 10 11 10 15 22 21 30 33 32 34 35 36 40 43 45 45 44 45 46 44 43 35 34 34 29 33 25 16 21 20 21 22 23 24 24 22 20 20 20 21 22
16 15 14 16 15 16 16 21 23 24 26 28 31 33 37 39 41 42 44 45 44 39 36 31 34 30 29 21 15 19 19 20 21 23 23 23 22 20 20 20 21 22 23
17 18 19 19 17 14 15 16 15 14 16 22 26 30 33 35 35 36 37 36 34 33 31 29 26 27 19 15 19 19 19 20 21 22 22 21 20 21 21 21 21 23 24
17 17 18 18 18 16 13 12 12 13 16 19 22 23 25 27 29 31 33 34 32 27 26 26 24 18 16 16 17 18 19 19 21 21 21 20 20 20 20 20 22 22 23
15 16 18 16 15 16 14 13 11 12 15 13 17 18 21 25 28 29 28 25 26 25 25 22 17 18 15 16 17 17 19 21 22 21 19 18 18 18 19 19 20 21 23
16 14 10 13 16 13 18 17 14 13 11 8 10 16 17 18 20 23 25 26 25 26 22 21 20 16 16 17 17 16 18 20 20 19 17 16 16 16 17 18 19 20 21
8 8 13 14 11 20 20 18 18 19 19 20 17 17 13 16 18 20 20 24 26 23 24 21 21 18 17 16 16 17 18 18 16 15 15 15 15 15 16 18 20 22 26
17 20 23 26 24 19 26 26 23 21 25 25 27 26 26 19 21 22 24 26 22 20 21 24 24 17 17 16 16 17 15 14 15 14 14 13 14 17 18 18 20 23 25
22 23 23 21 23 22 26 32 28 27 23 25 28 32 28 21 24 21 22 21 21 22 23 23 21 16 17 16 15 14 14 14 14 13 13 15 17 17 19 21 23 25 27
18 19 19 20 22 20 23 29 29 26 26 24 27 31 25 29 26 18 17 20 21 21 22 23 16 19 17 16 15 14 15 14 13 13 15 16 17 19 22 23 26 29 31
23 24 24 24 22 23 20 22 22 23 25 24 24 26 29 30 22 16 18 18 20 21 24 19 19 18 18 16 16 16 15 14 14 14 15 17 19 21 23 26 28 32 34
18 22 22 21 22 23 23 20 19 18 21 21 25 26 28 27 19 17 18 18 20 23 21 18 21 18 18 17 15 15 14 14 14 15 17 19 21 23 26 28 31 34 36
13 16 19 22 22 24 26 19 17 13 17 22 25 23 21 18 17 18 18 18 20 22 16 21 20 19 17 16 15 15 15 15 15 17 18 21 23 26 29 32 34 36 37
17 19 23 24 23 21 25 16 15 13 15 20 19 15 17 18 17 18 18 18 21 20 19 21 20 19 18 16 16 16 16 16 17 19 21 23 26 29 32 34 36 38 38
24 26 29 26 23 21 19 16 13 14 16 19 18 16 16 17 19 20 19 20 19 19 20 20 21 19 17 18 17 16 17 18 19 21 24 27 29 31 33 35 37 39 39
Wind_Direction
254 254 248 248 250 257 256 253 247 243 239 239 239 241 244 246 246 247 248 251 253 255 255 257 262 267 272 275 279 282 284 285 289 291 289 288 286 286 286 287 288 285 283
253 247 241 245 250 256 256 253 244 243 242 239 237 239 243 246 246 245 245 248 252 252 252 256 262 266 270 273 275 277 280 283 285 288 291 296 290 282 286 286 285 285 286
226 225 236 244 251 247 254 251 242 244 241 238 238 240 243 244 245 244 242 244 248 249 250 252 255 259 263 266 268 271 275 278 279 280 283 286 269 298 292 286 288 285 286
230 214 203 236 247 242 247 247 241 243 241 239 241 245 249 251 251 247 242 244 246 246 247 250 251 254 259 263 267 267 269 273 274 272 277 279 277 277 286 288 291 289 290
235 238 230 223 253 243 245 245 246 243 241 239 240 243 247 249 248 244 242 243 245 246 247 247 249 251 256 261 264 265 268 270 271 276 276 272 280 279 277 279 284 282 283
231 243 236 235 236 247 246 250 249 248 243 239 237 240 245 248 248 247 244 242 243 244 245 246 247 249 253 257 261 262 265 265 267 272 273 281 278 276 277 278 281 283 283
245 240 236 244 247 253 251 251 249 249 241 239 240 240 242 246 248 248 244 244 245 246 244 243 244 247 252 253 255 257 257 260 269 277 280 279 278 277 278 280 282 284 285
258 261 254 255 260 254 257 252 252 252 244 238 242 246 240 242 245 246 241 240 241 241 254 240 240 242 246 248 252 250 249 261 275 278 282 279 278 281 282 283 283 282 279
257 263 262 259 256 254 255 250 252 253 250 246 241 245 249 249 250 244 239 238 241 246 250 240 230 230 236 243 243 243 252 264 274 285 279 279 278 280 278 278 274 268 262
259 262 267 270 272 268 263 263 259 256 254 251 248 245 249 250 249 251 250 250 251 253 257 252 247 235 230 236 240 245 254 261 268 268 272 273 274 274 272 269 267 266 265
250 242 280 276 270 268 270 271 267 264 257 253 246 239 242 244 243 243 245 245 247 249 250 239 221 219 225 237 244 250 255 264 266 271 274 277 275 271 269 269 270 273 277
235 240 242 250 259 277 273 271 260 257 252 249 244 237 240 241 243 244 245 245 247 245 243 233 230 235 231 238 235 248 257 262 267 272 273 274 271 267 268 271 276 280 284
252 248 244 244 248 256 264 269 256 248 246 241 237 235 239 244 245 243 244 247 249 254 248 237 245 237 233 226 239 248 255 262 267 268 271 270 267 268 271 275 279 280 284
265 262 259 265 266 268 291 279 241 247 252 241 235 236 240 243 245 248 250 250 251 253 253 231 222 219 221 224 240 250 257 261 266 272 272 270 269 271 275 279 280 283 287
260 257 271 268 275 277 297 314 316 260 263 261 258 255 254 255 254 252 250 252 251 234 215 213 214 224 222 234 245 253 260 267 270 273 273 269 271 274 276 277 278 283 289
262 260 259 264 265 271 271 282 305 324 252 263 259 252 249 247 247 249 249 236 223 217 213 216 227 228 230 242 249 255 264 270 271 272 271 271 271 269 271 275 281 290 298
244 249 249 266 285 273 272 266 261 271 277 271 269 253 238 239 236 231 230 231 216 213 220 226 237 228 233 240 250 260 267 271 273 271 270 267 267 272 275 282 291 295 300
248 267 282 281 278 284 278 283 276 260 256 259 260 261 250 245 246 242 236 227 226 225 230 239 245 227 238 245 256 261 265 265 265 263 262 267 274 280 286 291 300 307 313
271 281 287 296 289 276 278 274 276 274 264 254 261 260 256 253 256 253 247 250 246 241 243 247 247 219 239 246 251 255 258 259 257 259 265 276 282 284 292 299 301 306 314
279 291 291 290 288 286 273 280 272 272 271 276 265 262 258 273 264 259 257 257 252 241 241 243 226 225 239 244 248 249 250 251 256 263 271 275 282 294 299 301 306 311 314
283 294 285 285 291 303 282 279 274 277 266 258 274 272 268 252 252 252 251 251 242 239 242 225 214 230 235 237 241 245 248 251 254 261 271 282 293 298 302 308 310 311 313
289 293 293 293 296 297 294 276 271 274 267 247 241 247 252 259 251 251 258 252 245 242 231 210 222 228 231 231 235 240 243 250 258 269 280 291 297 303 308 310 310 310 311
296 302 295 301 300 291 304 288 270 268 258 241 235 240 245 244 246 253 255 251 244 236 214 215 227 225 227 233 236 241 250 258 268 279 288 295 303 310 311 311 310 311 312
290 315 323 316 303 305 305 279 254 248 246 232 230 233 232 235 245 253 252 250 239 223 206 227 226 227 231 235 241 248 256 264 275 284 293 303 309 310 311 310 310 311 312
295 298 315 326 310 298 317 260 240 237 237 236 229 217 220 230 240 249 246 241 234 215 213 225 230 232 234 236 244 252 260 270 279 290 299 305 306 308 309 310 312 313 312
285 292 300 319 315 290 304 280 252 248 229 221 212 212 226 240 246 243 235 226 221 219 227 230 234 237 237 242 248 255 264 275 285 295 300 302 304 307 308 308 311 312 312
Height
3066 3067 3069 3066 3067 3064 3064 3065 3069 3071 3072 3075 3077 3081 3083 3086 3088 3090 3093 3093 3094 3095 3096 3097 3098 3098 3099 3099 3100 3100 3100 3100 3100 3099 3098 3097 3096 3096 3095 3094 3093 3091 3090
3057 3059 3060 3056 3057 3058 3056 3057 3060 3062 3066 3068 3071 3073 3075 3078 3080 3084 3086 3088 3089 3089 3090 3091 3092 3092 3093 3093 3094 3094 3094 3095 3095 3094 3093 3091 3091 3091 3089 3088 3088 3086 3085
3045 3048 3053 3047 3047 3049 3048 3050 3052 3054 3058 3060 3062 3065 3067 3069 3072 3076 3078 3080 3081 3082 3083 3084 3085 3086 3086 3087 3087 3088 3088 3088 3089 3088 3089 3088 3087 3085 3083 3083 3082 3082 3079
3035 3036 3037 3040 3037 3040 3041 3042 3044 3046 3049 3051 3053 3056 3059 3062 3064 3068 3069 3072 3073 3074 3075 3076 3077 3078 3079 3080 3081 3082 3082 3081 3082 3082 3082 3082 3082 3081 3077 3078 3077 3075 3074
3026 3028 3031 3032 3031 3031 3032 3034 3035 3037 3040 3042 3045 3048 3051 3053 3054 3057 3060 3063 3065 3067 3068 3069 3070 3071 3073 3073 3074 3075 3076 3077 3077 3076 3076 3076 3075 3075 3074 3070 3070 3069 3067
3017 3020 3022 3023 3022 3023 3025 3025 3026 3028 3031 3033 3035 3037 3041 3044 3045 3048 3051 3053 3055 3058 3060 3062 3063 3064 3065 3067 3068 3069 3070 3070 3071 3070 3069 3067 3069 3069 3068 3067 3065 3063 3063
3010 3011 3012 3016 3016 3014 3016 3017 3018 3019 3021 3023 3026 3028 3032 3032 3036 3040 3043 3045 3047 3049 3051 3052 3054 3057 3059 3060 3061 3062 3063 3064 3064 3063 3062 3061 3062 3061 3061 3061 3059 3057 3056
3008 3004 3004 3005 3009 3008 3008 3010 3011 3012 3014 3014 3018 3019 3022 3021 3025 3030 3033 3034 3036 3038 3041 3040 3046 3048 3051 3052 3055 3056 3055 3056 3056 3057 3055 3056 3056 3055 3055 3055 3054 3053 3053
3000 3002 2998 2997 2999 3000 3001 3002 3003 3004 3006 3009 3010 3010 3013 3016 3020 3020 3021 3023 3026 3027 3028 3028 3033 3036 3039 3045 3046 3047 3047 3047 3048 3048 3049 3048 3048 3049 3049 3048 3048 3047 3047
2993 2995 2994 2992 2991 2992 2992 2993 2993 2997 2998 2998 3001 3003 3005 3007 3010 3012 3012 3014 3017 3019 3022 3024 3028 3031 3033 3037 3038 3040 3040 3040 3041 3042 3042 3041 3041 3040 3041 3040 3041 3042 3042
2987 2989 2988 2988 2985 2984 2984 2984 2985 2987 2991 2992 2992 2995 2997 2997 2998 3001 3004 3007 3007 3011 3013 3014 3017 3020 3023 3028 3032 3033 3033 3035 3035 3035 3036 3038 3035 3035 3035 3034 3035 3035 3034
2984 2983 2982 2983 2980 2981 2980 2978 2978 2979 2981 2983 2983 2986 2988 2989 2991 2993 2996 2998 3000 3002 3003 3007 3009 3014 3017 3021 3023 3025 3027 3028 3029 3029 3030 3030 3030 3029 3029 3028 3027 3028 3027
2981 2980 2979 2977 2976 2976 2974 2974 2971 2971 2972 2973 2975 2978 2980 2982 2985 2988 2988 2991 2993 2995 2998 3002 3004 3008 3011 3013 3016 3018 3021 3022 3023 3023 3023 3023 3022 3021 3021 3021 3021 3021 3020
2979 2975 2974 2973 2972 2971 2970 2969 2965 2966 2967 2968 2970 2971 2975 2978 2979 2982 2983 2986 2987 2990 2992 2996 2998 3002 3004 3006 3010 3013 3013 3015 3017 3018 3017 3017 3015 3016 3016 3015 3015 3017 3016
2975 2972 2968 2969 2968 2967 2966 2964 2963 2961 2961 2964 2966 2968 2970 2972 2974 2977 2978 2980 2981 2985 2988 2990 2993 2996 2998 3002 3004 3006 3008 3010 3011 3011 3010 3011 3010 3010 3010 3010 3010 3009 3009
2970 2968 2966 2964 2963 2961 2962 2962 2961 2960 2959 2961 2963 2964 2966 2967 2969 2970 2972 2974 2976 2980 2983 2985 2987 2990 2994 2997 3000 3001 3003 3004 3005 3005 3004 3004 3004 3004 3004 3004 3004 3003 3002
2961 2963 2962 2963 2959 2959 2957 2959 2959 2960 2960 2959 2961 2961 2961 2962 2963 2966 2968 2969 2972 2975 2977 2979 2983 2987 2990 2992 2994 2996 2998 2999 2998 2999 2999 2999 3001 3000 3000 2998 2998 2998 2997
2958 2958 2957 2958 2959 2956 2956 2956 2956 2956 2957 2958 2957 2958 2958 2960 2961 2962 2964 2966 2968 2969 2973 2976 2979 2983 2986 2988 2989 2991 2992 2992 2993 2994 2995 2996 2995 2995 2995 2992 2991 2989 2987
2953 2952 2952 2952 2953 2955 2950 2951 2952 2953 2953 2953 2953 2953 2953 2955 2957 2958 2959 2961 2963 2966 2970 2972 2974 2977 2980 2982 2984 2986 2987 2987 2989 2990 2990 2990 2991 2992 2990 2987 2985 2983 2979
2947 2947 2946 2945 2945 2945 2945 2944 2946 2946 2945 2945 2947 2947 2948 2951 2951 2953 2956 2957 2959 2961 2964 2966 2969 2973 2976 2978 2980 2981 2982 2983 2984 2984 2984 2985 2987 2985 2983 2981 2978 2975 2971
2942 2942 2941 2940 2939 2938 2938 2936 2938 2939 2939 2940 2941 2939 2940 2940 2945 2949 2950 2952 2954 2956 2959 2961 2965 2968 2972 2973 2975 2976 2978 2979 2979 2980 2981 2981 2980 2979 2976 2972 2969 2967 2963
2938 2938 2937 2936 2934 2933 2932 2931 2932 2933 2933 2933 2936 2937 2938 2941 2941 2944 2947 2947 2950 2952 2955 2957 2962 2964 2967 2969 2971 2972 2973 2975 2976 2975 2976 2975 2974 2972 2969 2964 2962 2959 2956
2935 2934 2933 2930 2928 2928 2926 2924 2924 2925 2926 2927 2928 2930 2933 2935 2937 2940 2942 2943 2944 2947 2950 2954 2957 2960 2963 2964 2966 2967 2968 2971 2971 2970 2970 2970 2967 2963 2961 2958 2954 2951 2947
2931 2929 2928 2925 2923 2921 2919 2918 2918 2918 2920 2921 2922 2924 2927 2931 2933 2936 2937 2938 2940 2943 2947 2951 2954 2956 2958 2960 2961 2963 2964 2966 2965 2965 2964 2962 2959 2957 2954 2950 2947 2943 2938
2926 2925 2924 2922 2919 2916 2915 2914 2914 2914 2916 2918 2919 2921 2924 2927 2930 2932 2933 2935 2937 2940 2943 2946 2950 2952 2955 2955 2957 2958 2959 2960 2960 2959 2957 2955 2953 2951 2947 2943 2938 2933 2928
2921 2920 2919 2918 2915 2913 2912 2911 2911 2911 2911 2913 2915 2918 2921 2924 2926 2927 2929 2931 2934 2937 2941 2943 2946 2949 2950 2951 2952 2953 2954 2953 2953 2951 2950 2950 2947 2943 2940 2935 2930 2924 2919